Miscellaneous Local Product
Issued by NWS Hastings, NE

Home | Current Version | Previous Version | Graphics & Text | Print | Product List | Glossary On
Versions: 1 2 3 4 5 6 7 8 9 10 11 12 13 14 15 16 17 18 19 20 21 22 23 24 25 26 27 28 29 30 31 32 33 34 35 36 37 38 39 40 41 42 43 44 45 46 47 48 49 50
000
AXUS43 KGID 031402
MISGRI

GID CWA HOURLY WEATHER ROUNDUP
NATIONAL WEATHER SERVICE HASTINGS NE
800 AM CST TUE MAR 03 2015

NOTE: "FAIR" INDICATES FEW OR NO CLOUDS BELOW 12,000 FEET WITH NO
SIGNIFICANT WEATHER AND/OR OBSTRUCTIONS TO VISIBILITY.

...SOUTH CENTRAL NEBRASKA...

CITY           SKY/WX    TMP DP  RH WIND       PRES   REMARKS
GRAND ISLAND   CLOUDY    29  23  78 W10       29.73R WCI  20
HASTINGS       CLOUDY    30  23  75 NW14      29.71R WCI  19
KEARNEY        CLOUDY    28  21  74 NW10      29.73R WCI  19
ORD            CLOUDY    30  22  72 NW13      29.72R WCI  20
YORK           CLOUDY    30  28  93 NW9       29.68R FOG     WCI  22
AURORA         CLOUDY    30  27  90 NW8       29.70R WCI  22
LEXINGTON      CLOUDY    31  27  83 NW12      29.74R WCI  22
HOLDREGE       CLOUDY    27  22  81 NW8       29.71R WCI  19
HEBRON         CLOUDY    34  29  82 NW9       29.69R WCI  27

...NEBRASKA PANHANDLE...

CITY           SKY/WX    TMP DP  RH WIND       PRES   REMARKS
CHADRON        CLOUDY    16  11  80 N23       29.94R HAZE    WCI  -2
ALLIANCE       LGT SNOW  16  11  80 N23G32    29.87R WCI  -2
SCOTTSBLUFF    CLOUDY    19  12  74 N17       29.90R WCI   4
SIDNEY         CLOUDY    20  16  84 N23G31    29.83R WCI   3

...WESTERN AND NORTH CENTRAL NEBRASKA...

CITY           SKY/WX    TMP DP  RH WIND       PRES   REMARKS
VALENTINE      LGT SNOW  17  11  77 N26G38    29.89R WCI  -2
AINSWORTH      LGT SNOW  18  13  81 N31G41    29.83R WCI  -2
ONEILL         FLURRIES  30  28  90 NW17      29.71R WCI  18
BROKEN BOW     CLOUDY    29  23  78 N36G49    29.73R WCI  12
IMPERIAL         N/A     31  24  75 N33G43    29.78R WCI  15
NORTH PLATTE   CLOUDY    27  18  69 N25G40    29.79R WCI  12
MCCOOK         CLOUDY    31  26  82 W8        29.75R HAZE    WCI  23

...EASTERN NEBRASKA...

CITY           SKY/WX    TMP DP  RH WIND       PRES   REMARKS
NORFOLK        CLOUDY    29  25  85 NW6       29.69R WCI  23
SO SIOUX CITY  CLOUDY    29  27  92 NW5       29.70R FOG     WCI  24
TEKAMAH        CLOUDY    31  29  92 CALM      29.68F FOG
COLUMBUS       CLOUDY    30  21  69 W9        29.72R WCI  22
ALBION         CLOUDY    29  22  74 NW9       29.68R WCI  21
OMAHA EPPLEY   FRZ DRZL  32  31  96 NW3       29.68R VSB 1
OFFUTT AFB     FRZ DRZL  32  32  97 W3        29.67R FOG
MILLARD        CLOUDY    32  32  97 CALM      29.68R FOG
LINCOLN        CLOUDY    33  32  96 NW7       29.70R FOG     WCI  27
NEBRASKA CITY  FOG       34  34 100 SW5       29.66S VSB 3/4 WCI  30
BEATRICE       CLOUDY    36  32  88 SW12G17   29.66R FOG     WCI  27
FALLS CITY     CLOUDY    36  34  92 S5        29.67S FOG     WCI  32

...NORTHERN KANSAS...

CITY           SKY/WX    TMP DP  RH WIND       PRES   REMARKS
GOODLAND       CLOUDY    31  29  92 N16       29.76R FOG     WCI  20
HILL CITY      MOCLDY    30  25  81 NW12      29.76R HAZE    WCI  20
PHILLIPSBURG   CLEAR     32  27  80 NW10      29.74R WCI  24
SMITH CENTER   CLEAR     30  27  86 NW14      29.72R WCI  20
BELOIT         MOCLDY    34  30  86 W5        29.69R WCI  30
HAYS           CLOUDY    36  27  69 NW16      29.72R WCI  26
RUSSELL        CLOUDY    39  34  82 NW16      29.70R WCI  30
CONCORDIA      CLOUDY    36  33  89 W8        29.69R WCI  30
SALINA         PTSUNNY   40  33  76 SW22      29.68R WCI  30
TOPEKA         CLOUDY    42  37  82 SW12G21   29.69F



USA.gov is the U.S. government's official web portal to all federal, state and local government web resources and services.